EST,Max TemperatureF,Mean TemperatureF,Min TemperatureF,Max Dew PointF,MeanDew PointF,Min DewpointF,Max Humidity, Mean Humidity, Min Humidity, Max Sea Level PressureIn, Mean Sea Level PressureIn, Min Sea Level PressureIn, Max VisibilityMiles, Mean VisibilityMiles, Min VisibilityMiles, Max Wind SpeedMPH, Mean Wind SpeedMPH, Max Gust SpeedMPH,PrecipitationIn, CloudCover, Events, WindDirDegrees
2011-12-1,44,34,25,35,29,24,100,81,56,30.21,30.16,30.09,10,10,5,8,2,,0.00,4,Rain-Snow,270
2011-12-2,35,29,23,32,26,22,100,85,61,30.42,30.35,30.21,10,9,2,9,5,,0.00,3,Snow,309
2011-12-3,42,34,27,43,35,26,100,99,91,30.38,30.22,30.05,10,6,2,14,7,17,0.00,6,Rain,174
2011-12-4,50,44,39,49,44,39,100,98,94,30.09,29.91,29.84,10,8,3,17,10,26,0.00,8,Rain,229
2011-12-5,35,32,30,35,29,24,100,88,74,30.30,30.25,30.19,10,10,10,9,4,17,0.00,5,,6
2011-12-6,30,28,26,25,22,21,81,78,73,30.28,30.20,30.10,10,10,10,12,7,,0.00,8,,346
2011-12-7,34,28,22,24,22,16,96,76,48,30.06,29.93,29.82,10,10,10,16,5,21,0.00,7,Snow,265
2011-12-8,33,26,18,26,21,16,99,72,49,30.08,30.04,29.98,10,10,7,21,7,31,0.00,4,Snow,256
2011-12-9,29,24,20,21,14,10,88,66,52,30.24,30.14,30.08,10,10,5,16,10,24,0.00,6,Snow,289
2011-12-10,27,18,8,14,11,7,98,73,48,30.39,30.34,30.28,10,10,7,14,4,20,0.00,3,Snow,254
2011-12-11,42,34,25,32,27,18,88,78,66,30.32,30.30,30.28,10,10,10,17,9,28,0.00,4,,208
2011-12-12,46,36,26,34,31,26,100,82,60,30.36,30.33,30.29,10,9,7,13,5,,0.00,5,,188
2011-12-13,41,36,30,33,31,28,94,82,70,30.37,30.34,30.30,10,10,7,7,3,,0.00,8,,165
2011-12-14,49,40,32,50,38,31,100,99,91,30.26,30.01,29.69,10,4,0,12,3,20,0.00,8,Rain-Snow,166
2011-12-15,53,42,30,53,39,22,100,90,70,30.03,29.68,29.50,10,8,2,31,15,41,0.00,8,Rain-Snow,265
2011-12-16,30,28,27,26,23,20,89,78,71,30.28,30.22,30.04,10,10,10,18,11,26,0.00,8,,321
2011-12-17,28,26,24,28,21,17,100,80,69,30.28,30.19,30.07,10,9,2,9,3,,0.00,8,Snow,162
2011-12-18,37,33,29,30,27,24,94,79,71,30.14,30.03,29.84,10,10,7,15,7,23,0.00,6,Snow,221
2011-12-19,42,38,33,38,34,26,97,85,71,30.09,29.85,29.73,10,10,7,14,7,18,0.00,5,Rain,282
2011-12-20,32,25,18,28,23,17,98,81,70,30.21,30.05,29.82,10,10,10,10,3,,0.00,6,,142
2011-12-21,35,32,29,36,33,28,100,98,86,29.87,29.72,29.62,10,6,1,6,1,,0.00,7,Snow,285
2011-12-22,35,32,29,35,32,26,100,94,83,30.13,30.02,29.87,10,8,3,13,5,16,0.00,7,Snow,322
2011-12-23,30,26,22,26,22,17,95,77,60,30.27,30.20,30.16,10,10,2,9,4,,0.00,8,Snow,208
2011-12-24,33,30,27,31,28,26,100,92,75,30.28,30.18,30.04,10,8,4,15,5,20,0.00,8,Snow,187
2011-12-25,39,36,32,32,31,26,93,83,69,30.16,29.96,29.85,10,10,10,21,9,25,0.00,4,Snow,275
2011-12-26,44,37,30,32,28,26,87,71,51,30.21,30.11,29.94,10,10,10,16,8,26,0.00,3,,227
2011-12-27,39,32,25,37,32,20,100,93,75,29.79,29.60,29.44,10,6,0,24,9,36,0.00,8,Fog-Rain-Snow,235
2011-12-28,26,20,15,19,14,11,95,74,63,29.99,29.93,29.80,10,10,10,18,10,25,0.00,4,Snow,324
2011-12-29,33,28,24,33,28,20,100,93,81,29.85,29.64,29.50,10,6,1,10,5,16,0.00,8,Snow,146
2011-12-30,35,34,32,35,33,33,100,100,99,29.70,29.64,29.57,5,2,0,8,4,,0.00,8,Fog-Snow,59
2011-12-31,39,36,33,34,32,30,100,88,73,29.96,29.85,29.67,10,9,5,10,5,17,0.00,6,,230